Orbital Elements at Epoch 2459000.5 (2020-May-31.0) TDB
Reference: JPL 15 (heliocentric ecliptic J2000)
Element | Value | Uncertainty (1-sigma) | Units |
e | .07825925135654734 | 8.858e-08 | |
a | 3.159883778441968 | 4.9304e-08 | au |
q | 2.912593639567401 | 2.6128e-07 | au |
i | 10.18293399853853 | 9.529e-06 | deg |
node | 203.384383758897 | 3.5872e-05 | deg |
peri | 106.6155976776218 | 6.8263e-05 | deg |
M | 30.21094250252609 | 5.6313e-05 | deg |
tp | 2458828.326279366281 (2019-Dec-10.82627937) | 0.00032049 | TDB |
period | 2051.658581090482 5.62 | 4.8018e-05 1.315e-07 | d yr |
n | .1754677914337266 | 4.1067e-09 | deg/d |
Q | 3.407173917316535 | 5.3162e-08 | au |
|
| | Orbit Determination Parameters
Additional Information
|